User: anonymous   Login
Location: Owatonna
(44.0840°N, 93.2260°W)
Time: 10:06:39
(UTC-05:00)
Language:

Cosmos 839 Rocket - Orbit

View from above orbital plane
View from above orbital plane
View from above satellite
View from above satellite

Ground track
Ground track

The orbit data is extracted from the following two-line orbital elements,

1  9013U 76067B   16203.85456796 -.00000010 +00000-0 +15025-3 0  9999
2  9013 065.8663 287.6943 0717903 203.1260 303.6212 12.35325313805603
Epoch (UTC): 21 July 2016 20:30:34
Eccentricity: 0.0717903
inclination: 65.8663°
perigee height: 959 km
apogee height: 2094 km
right ascension of ascending node: 287.6943°
argument of perigee: 203.1260°
revolutions per day: 12.35325313
mean anomaly at epoch: 303.6212°
orbit number at epoch: 80560

The dashed part of the orbit path shows where the satellite is in the earth's shadow,  

DLR